QPF
0.01 0.02 0.04 0.03 0.01 0.01 0.03 0.04 0.03 0.03 0.04 0.04 0.04 0.04 0.03 0.03 0.03 0.03 0.08 0.07 0.05 0.03 0.03 0.04 0.07 0.08 0.08 0.08 0.08 0.06 0.05 0.06 0.06 0.05 0.04 0.03 0.03 0.02 0.03 0.03 0.03 0.03 0.02
0.01 0.01 0.03 0.03 0.02 0.02 0.02 0.05 0.08 0.04 0.03 0.04 0.04 0.04 0.05 0.05 0.03 0.03 0.06 0.07 0.03 0.02 0.03 0.05 0.05 0.06 0.08 0.08 0.09 0.08 0.06 0.06 0.07 0.07 0.07 0.05 0.06 0.04 0.02 0.02 0.02 0.03 0.03
0.02 0.03 0.05 0.03 0.02 0.01 0.01 0.06 0.11 0.07 0.04 0.04 0.03 0.03 0.05 0.07 0.05 0.04 0.04 0.03 0.02 0.02 0.03 0.04 0.05 0.06 0.06 0.07 0.09 0.09 0.09 0.11 0.09 0.09 0.10 0.09 0.09 0.05 0.03 0.03 0.03 0.03 0.05
0.05 0.06 0.06 0.02 0.01 0.00 0.01 0.01 0.03 0.03 0.05 0.05 0.05 0.06 0.06 0.06 0.06 0.03 0.03 0.04 0.02 0.03 0.04 0.05 0.05 0.05 0.05 0.07 0.06 0.07 0.10 0.13 0.13 0.10 0.09 0.09 0.09 0.07 0.05 0.05 0.05 0.05 0.05
0.03 0.03 0.01 0.00 0.01 0.01 0.01 0.01 0.02 0.02 0.03 0.06 0.07 0.09 0.08 0.05 0.04 0.03 0.04 0.04 0.03 0.03 0.04 0.04 0.05 0.05 0.05 0.05 0.06 0.06 0.08 0.11 0.12 0.10 0.09 0.08 0.08 0.08 0.10 0.10 0.09 0.07 0.05
0.01 0.01 0.01 0.00 0.01 0.01 0.01 0.01 0.01 0.01 0.02 0.03 0.04 0.05 0.04 0.03 0.03 0.03 0.04 0.03 0.03 0.04 0.04 0.04 0.04 0.05 0.05 0.05 0.06 0.06 0.05 0.06 0.09 0.09 0.08 0.08 0.09 0.11 0.12 0.10 0.07 0.06 0.05
0.00 0.00 0.01 0.01 0.02 0.01 0.01 0.01 0.01 0.01 0.02 0.03 0.03 0.03 0.03 0.03 0.03 0.03 0.04 0.03 0.03 0.03 0.04 0.04 0.04 0.04 0.06 0.06 0.06 0.07 0.08 0.09 0.12 0.12 0.11 0.09 0.08 0.09 0.09 0.08 0.06 0.05 0.04
0.00 0.00 0.01 0.01 0.01 0.01 0.01 0.00 0.01 0.01 0.02 0.02 0.01 0.02 0.02 0.02 0.02 0.02 0.03 0.02 0.02 0.02 0.02 0.03 0.03 0.03 0.03 0.04 0.04 0.06 0.11 0.12 0.13 0.14 0.14 0.11 0.08 0.07 0.07 0.06 0.05 0.05 0.04
0.00 0.00 0.00 0.01 0.01 0.00 0.00 0.00 0.03 0.03 0.02 0.01 0.01 0.01 0.01 0.01 0.01 0.01 0.02 0.02 0.02 0.02 0.03 0.03 0.03 0.02 0.03 0.03 0.04 0.05 0.08 0.12 0.13 0.12 0.10 0.07 0.05 0.05 0.06 0.06 0.07 0.07 0.05
0.00 0.01 0.01 0.01 0.01 0.00 0.00 0.01 0.02 0.01 0.01 0.01 0.01 0.01 0.01 0.01 0.01 0.01 0.01 0.02 0.02 0.03 0.03 0.04 0.04 0.03 0.03 0.04 0.04 0.05 0.07 0.08 0.09 0.08 0.09 0.07 0.05 0.05 0.05 0.04 0.05 0.06 0.06
0.00 0.01 0.01 0.02 0.02 0.01 0.01 0.01 0.01 0.01 0.01 0.01 0.01 0.01 0.01 0.01 0.01 0.01 0.01 0.02 0.03 0.03 0.04 0.04 0.04 0.03 0.03 0.04 0.04 0.06 0.08 0.07 0.07 0.07 0.06 0.08 0.09 0.08 0.05 0.03 0.03 0.04 0.05
0.00 0.01 0.01 0.01 0.02 0.03 0.04 0.03 0.01 0.01 0.01 0.01 0.02 0.02 0.03 0.02 0.02 0.02 0.03 0.03 0.03 0.03 0.03 0.04 0.03 0.03 0.03 0.04 0.04 0.05 0.05 0.05 0.05 0.05 0.05 0.05 0.05 0.07 0.07 0.04 0.02 0.02 0.04
0.01 0.01 0.01 0.01 0.01 0.02 0.03 0.03 0.03 0.03 0.04 0.04 0.04 0.04 0.04 0.04 0.03 0.04 0.03 0.03 0.03 0.03 0.03 0.03 0.04 0.04 0.04 0.03 0.02 0.02 0.02 0.03 0.03 0.03 0.03 0.03 0.04 0.05 0.05 0.05 0.03 0.03 0.03
0.01 0.02 0.02 0.02 0.02 0.02 0.02 0.02 0.02 0.02 0.03 0.05 0.07 0.10 0.10 0.09 0.09 0.08 0.07 0.05 0.05 0.04 0.03 0.02 0.03 0.04 0.04 0.03 0.02 0.02 0.03 0.03 0.03 0.03 0.03 0.03 0.03 0.06 0.08 0.08 0.07 0.05 0.04
0.01 0.02 0.02 0.02 0.02 0.02 0.02 0.02 0.01 0.01 0.01 0.02 0.02 0.05 0.07 0.08 0.11 0.12 0.12 0.12 0.09 0.07 0.04 0.02 0.02 0.02 0.02 0.02 0.02 0.02 0.02 0.03 0.02 0.02 0.02 0.03 0.03 0.04 0.05 0.07 0.09 0.08 0.06
0.01 0.01 0.02 0.03 0.02 0.02 0.01 0.01 0.01 0.01 0.01 0.01 0.01 0.01 0.02 0.03 0.04 0.06 0.07 0.08 0.08 0.07 0.05 0.04 0.03 0.02 0.01 0.01 0.02 0.02 0.02 0.03 0.03 0.03 0.04 0.03 0.03 0.04 0.04 0.04 0.06 0.07 0.08
0.01 0.01 0.02 0.02 0.04 0.03 0.02 0.01 0.01 0.01 0.01 0.01 0.01 0.01 0.01 0.02 0.03 0.03 0.04 0.04 0.04 0.04 0.04 0.03 0.03 0.02 0.01 0.01 0.01 0.01 0.01 0.02 0.04 0.05 0.05 0.04 0.04 0.06 0.06 0.08 0.08 0.08 0.07
0.00 0.01 0.03 0.02 0.03 0.03 0.02 0.02 0.02 0.02 0.02 0.02 0.02 0.03 0.03 0.04 0.04 0.03 0.03 0.02 0.02 0.01 0.01 0.01 0.01 0.01 0.01 0.01 0.01 0.01 0.01 0.02 0.04 0.06 0.07 0.08 0.09 0.10 0.10 0.10 0.08 0.06 0.05
0.00 0.00 0.01 0.01 0.01 0.01 0.01 0.01 0.01 0.02 0.02 0.03 0.04 0.04 0.05 0.05 0.04 0.04 0.03 0.02 0.01 0.01 0.01 0.01 0.01 0.01 0.01 0.01 0.00 0.01 0.01 0.01 0.02 0.04 0.06 0.06 0.07 0.07 0.06 0.06 0.05 0.04 0.02
0.00 0.00 0.00 0.00 0.00 0.00 0.00 0.00 0.01 0.02 0.02 0.02 0.03 0.03 0.03 0.04 0.05 0.05 0.05 0.03 0.03 0.02 0.02 0.01 0.01 0.01 0.01 0.01 0.00 0.00 0.01 0.01 0.02 0.02 0.02 0.03 0.03 0.03 0.03 0.03 0.02 0.02 0.01
0.00 0.00 0.00 0.00 0.00 0.00 0.00 0.01 0.01 0.01 0.01 0.00 0.01 0.02 0.04 0.06 0.07 0.07 0.06 0.06 0.05 0.04 0.04 0.03 0.02 0.02 0.01 0.01 0.00 0.00 0.01 0.01 0.01 0.01 0.01 0.02 0.02 0.02 0.01 0.02 0.02 0.02 0.02
0.01 0.01 0.01 0.00 0.00 0.00 0.00 0.01 0.01 0.01 0.01 0.01 0.01 0.02 0.04 0.06 0.06 0.07 0.06 0.05 0.05 0.04 0.03 0.03 0.02 0.01 0.01 0.00 0.00 0.00 0.01 0.01 0.02 0.01 0.01 0.01 0.02 0.01 0.01 0.02 0.02 0.02 0.01
0.01 0.01 0.01 0.01 0.01 0.01 0.01 0.01 0.01 0.01 0.02 0.02 0.03 0.04 0.04 0.05 0.05 0.05 0.04 0.04 0.04 0.03 0.02 0.01 0.01 0.01 0.01 0.01 0.01 0.01 0.01 0.02 0.02 0.01 0.02 0.02 0.02 0.02 0.03 0.03 0.02 0.02 0.02
0.00 0.00 0.00 0.01 0.01 0.01 0.01 0.01 0.02 0.02 0.02 0.03 0.04 0.04 0.04 0.05 0.05 0.04 0.02 0.02 0.02 0.01 0.01 0.01 0.01 0.01 0.01 0.01 0.01 0.01 0.02 0.02 0.02 0.01 0.02 0.02 0.02 0.02 0.02 0.03 0.02 0.02 0.01
0.00 0.00 0.00 0.00 0.01 0.01 0.01 0.01 0.03 0.04 0.03 0.04 0.04 0.04 0.05 0.05 0.04 0.03 0.02 0.01 0.01 0.01 0.01 0.01 0.01 0.01 0.01 0.01 0.01 0.02 0.02 0.02 0.02 0.02 0.02 0.02 0.02 0.01 0.02 0.02 0.02 0.02 0.01
0.00 0.00 0.00 0.01 0.01 0.01 0.01 0.02 0.03 0.08 0.07 0.05 0.05 0.05 0.05 0.05 0.03 0.02 0.02 0.01 0.01 0.01 0.01 0.01 0.01 0.01 0.02 0.02 0.03 0.03 0.04 0.04 0.04 0.04 0.03 0.02 0.02 0.02 0.02 0.02 0.02 0.02 0.01
MSLP
1010.26 1010.54 1010.82 1011.09 1011.35 1011.59 1011.83 1012.07 1012.32 1012.57 1012.80 1012.98 1013.09 1013.10 1013.01 1012.82 1012.56 1012.25 1011.94 1011.67 1011.46 1011.32 1011.25 1011.22 1011.22 1011.21 1011.17 1011.10 1010.98 1010.82 1010.63 1010.43 1010.23 1010.02 1009.80 1009.58 1009.35 1009.10 1008.85 1008.61 1008.40 1008.24 1008.16
1009.67 1009.97 1010.27 1010.55 1010.82 1011.06 1011.30 1011.55 1011.80 1012.06 1012.30 1012.50 1012.62 1012.64 1012.54 1012.35 1012.08 1011.77 1011.46 1011.20 1011.01 1010.90 1010.86 1010.87 1010.89 1010.91 1010.88 1010.80 1010.67 1010.51 1010.32 1010.12 1009.93 1009.75 1009.58 1009.40 1009.20 1008.98 1008.73 1008.47 1008.21 1007.99 1007.83
1008.99 1009.31 1009.63 1009.93 1010.21 1010.46 1010.71 1010.95 1011.21 1011.47 1011.71 1011.92 1012.04 1012.07 1011.99 1011.80 1011.54 1011.25 1010.96 1010.73 1010.56 1010.48 1010.47 1010.51 1010.55 1010.57 1010.54 1010.46 1010.32 1010.15 1009.97 1009.79 1009.63 1009.50 1009.37 1009.25 1009.10 1008.91 1008.67 1008.40 1008.11 1007.82 1007.58
1008.29 1008.62 1008.95 1009.27 1009.56 1009.82 1010.06 1010.30 1010.55 1010.81 1011.06 1011.26 1011.40 1011.44 1011.39 1011.23 1011.00 1010.74 1010.49 1010.28 1010.14 1010.08 1010.08 1010.12 1010.16 1010.17 1010.14 1010.04 1009.90 1009.74 1009.57 1009.42 1009.30 1009.22 1009.16 1009.10 1009.01 1008.86 1008.64 1008.36 1008.04 1007.69 1007.36
1007.65 1007.97 1008.31 1008.64 1008.93 1009.18 1009.42 1009.65 1009.89 1010.13 1010.37 1010.58 1010.73 1010.80 1010.77 1010.65 1010.47 1010.25 1010.03 1009.84 1009.72 1009.66 1009.65 1009.67 1009.69 1009.68 1009.62 1009.52 1009.38 1009.22 1009.07 1008.97 1008.91 1008.88 1008.89 1008.89 1008.85 1008.75 1008.56 1008.28 1007.93 1007.54 1007.13
1007.18 1007.48 1007.80 1008.11 1008.39 1008.62 1008.84 1009.04 1009.26 1009.48 1009.71 1009.91 1010.08 1010.17 1010.17 1010.09 1009.94 1009.75 1009.55 1009.38 1009.25 1009.16 1009.12 1009.10 1009.08 1009.03 1008.95 1008.83 1008.69 1008.55 1008.44 1008.37 1008.36 1008.40 1008.46 1008.52 1008.54 1008.48 1008.32 1008.06 1007.70 1007.28 1006.83
1006.95 1007.22 1007.51 1007.78 1008.02 1008.22 1008.39 1008.56 1008.73 1008.92 1009.13 1009.32 1009.48 1009.58 1009.61 1009.55 1009.42 1009.24 1009.04 1008.85 1008.68 1008.55 1008.45 1008.37 1008.30 1008.20 1008.09 1007.95 1007.82 1007.70 1007.61 1007.58 1007.61 1007.69 1007.80 1007.91 1007.96 1007.95 1007.82 1007.59 1007.25 1006.84 1006.40
1007.01 1007.24 1007.48 1007.70 1007.88 1008.03 1008.14 1008.25 1008.37 1008.51 1008.67 1008.84 1008.98 1009.07 1009.09 1009.03 1008.90 1008.70 1008.48 1008.24 1008.02 1007.82 1007.64 1007.49 1007.35 1007.21 1007.06 1006.91 1006.77 1006.66 1006.59 1006.59 1006.63 1006.73 1006.85 1006.97 1007.05 1007.06 1006.98 1006.79 1006.51 1006.16 1005.77
1007.36 1007.54 1007.73 1007.88 1007.99 1008.06 1008.10 1008.14 1008.20 1008.28 1008.39 1008.51 1008.61 1008.67 1008.66 1008.57 1008.40 1008.16 1007.88 1007.58 1007.28 1007.00 1006.74 1006.51 1006.31 1006.12 1005.95 1005.78 1005.63 1005.52 1005.44 1005.42 1005.45 1005.52 1005.61 1005.71 1005.78 1005.80 1005.75 1005.63 1005.44 1005.20 1004.93
1007.92 1008.07 1008.20 1008.28 1008.32 1008.31 1008.28 1008.25 1008.24 1008.25 1008.30 1008.36 1008.40 1008.41 1008.34 1008.20 1007.97 1007.67 1007.31 1006.93 1006.55 1006.19 1005.86 1005.57 1005.31 1005.08 1004.87 1004.69 1004.52 1004.38 1004.27 1004.19 1004.15 1004.15 1004.16 1004.19 1004.21 1004.22 1004.20 1004.15 1004.07 1003.98 1003.89
1008.58 1008.71 1008.79 1008.82 1008.79 1008.71 1008.62 1008.52 1008.45 1008.41 1008.40 1008.40 1008.38 1008.32 1008.20 1007.98 1007.68 1007.30 1006.87 1006.42 1005.96 1005.53 1005.14 1004.80 1004.50 1004.24 1004.01 1003.80 1003.60 1003.41 1003.23 1003.06 1002.90 1002.77 1002.65 1002.56 1002.50 1002.46 1002.44 1002.46 1002.51 1002.58 1002.70
1009.22 1009.33 1009.38 1009.36 1009.28 1009.16 1009.02 1008.89 1008.78 1008.71 1008.66 1008.61 1008.54 1008.43 1008.24 1007.96 1007.59 1007.14 1006.65 1006.13 1005.62 1005.15 1004.72 1004.35 1004.03 1003.75 1003.50 1003.26 1003.01 1002.75 1002.47 1002.17 1001.86 1001.56 1001.27 1001.03 1000.84 1000.72 1000.69 1000.75 1000.91 1001.16 1001.48
1009.72 1009.83 1009.86 1009.82 1009.71 1009.57 1009.42 1009.28 1009.17 1009.09 1009.03 1008.96 1008.86 1008.71 1008.47 1008.15 1007.73 1007.23 1006.70 1006.14 1005.60 1005.11 1004.67 1004.29 1003.97 1003.68 1003.42 1003.14 1002.84 1002.49 1002.09 1001.65 1001.17 1000.68 1000.21 999.79 999.45 999.23 999.15 999.23 999.47 999.86 1000.38
1010.03 1010.15 1010.17 1010.11 1010.01 1009.87 1009.74 1009.62 1009.54 1009.49 1009.45 1009.40 1009.30 1009.14 1008.88 1008.53 1008.09 1007.57 1007.02 1006.46 1005.92 1005.42 1004.99 1004.63 1004.31 1004.03 1003.74 1003.44 1003.08 1002.65 1002.14 1001.56 1000.92 1000.25 999.60 999.01 998.52 998.18 998.04 998.11 998.39 998.88 999.54
1010.14 1010.26 1010.29 1010.24 1010.15 1010.05 1009.96 1009.90 1009.88 1009.88 1009.89 1009.87 1009.80 1009.65 1009.40 1009.05 1008.61 1008.10 1007.56 1007.02 1006.50 1006.03 1005.62 1005.27 1004.97 1004.69 1004.39 1004.06 1003.65 1003.15 1002.56 1001.86 1001.10 1000.30 999.50 998.77 998.16 997.72 997.50 997.53 997.81 998.33 999.06
1010.11 1010.24 1010.27 1010.24 1010.18 1010.12 1010.10 1010.10 1010.15 1010.23 1010.30 1010.33 1010.30 1010.18 1009.95 1009.63 1009.21 1008.73 1008.22 1007.71 1007.22 1006.79 1006.41 1006.08 1005.79 1005.51 1005.21 1004.85 1004.42 1003.88 1003.23 1002.48 1001.65 1000.77 999.90 999.09 998.39 997.88 997.59 997.56 997.80 998.29 999.01
1010.00 1010.14 1010.18 1010.18 1010.16 1010.15 1010.18 1010.26 1010.38 1010.52 1010.64 1010.72 1010.73 1010.64 1010.45 1010.16 1009.78 1009.34 1008.87 1008.40 1007.95 1007.55 1007.20 1006.89 1006.61 1006.33 1006.02 1005.66 1005.21 1004.67 1004.01 1003.26 1002.43 1001.56 1000.68 999.86 999.15 998.60 998.27 998.18 998.34 998.76 999.39
1009.91 1010.05 1010.12 1010.14 1010.15 1010.19 1010.28 1010.41 1010.58 1010.76 1010.92 1011.03 1011.06 1011.00 1010.83 1010.56 1010.22 1009.82 1009.39 1008.96 1008.56 1008.19 1007.86 1007.57 1007.29 1007.00 1006.69 1006.33 1005.89 1005.37 1004.76 1004.07 1003.31 1002.51 1001.71 1000.95 1000.28 999.75 999.40 999.26 999.34 999.64 1000.14
1009.87 1010.04 1010.13 1010.18 1010.23 1010.30 1010.42 1010.58 1010.76 1010.95 1011.12 1011.23 1011.26 1011.20 1011.04 1010.79 1010.47 1010.11 1009.72 1009.34 1008.97 1008.63 1008.32 1008.03 1007.75 1007.46 1007.15 1006.80 1006.39 1005.92 1005.38 1004.79 1004.15 1003.48 1002.81 1002.17 1001.59 1001.12 1000.78 1000.61 1000.61 1000.78 1001.11
1009.90 1010.10 1010.22 1010.31 1010.39 1010.48 1010.61 1010.77 1010.95 1011.12 1011.25 1011.33 1011.33 1011.25 1011.09 1010.84 1010.54 1010.21 1009.86 1009.51 1009.18 1008.87 1008.58 1008.30 1008.02 1007.73 1007.42 1007.08 1006.71 1006.30 1005.85 1005.37 1004.87 1004.35 1003.84 1003.35 1002.90 1002.51 1002.21 1002.02 1001.95 1001.99 1002.16
1009.95 1010.20 1010.37 1010.49 1010.60 1010.71 1010.84 1010.98 1011.12 1011.25 1011.33 1011.35 1011.31 1011.19 1011.00 1010.75 1010.47 1010.16 1009.85 1009.55 1009.26 1008.98 1008.71 1008.45 1008.18 1007.89 1007.58 1007.26 1006.92 1006.56 1006.19 1005.82 1005.45 1005.08 1004.72 1004.37 1004.05 1003.75 1003.50 1003.31 1003.18 1003.12 1003.14
1009.98 1010.29 1010.51 1010.68 1010.82 1010.94 1011.06 1011.18 1011.27 1011.34 1011.36 1011.32 1011.22 1011.05 1010.83 1010.58 1010.31 1010.03 1009.76 1009.51 1009.27 1009.03 1008.80 1008.57 1008.31 1008.04 1007.74 1007.43 1007.11 1006.79 1006.48 1006.18 1005.90 1005.64 1005.40 1005.17 1004.94 1004.73 1004.52 1004.34 1004.17 1004.04 1003.94
1009.93 1010.30 1010.58 1010.80 1010.97 1011.11 1011.23 1011.32 1011.38 1011.39 1011.35 1011.25 1011.09 1010.89 1010.65 1010.39 1010.13 1009.89 1009.66 1009.46 1009.28 1009.11 1008.93 1008.73 1008.51 1008.25 1007.97 1007.67 1007.36 1007.06 1006.77 1006.51 1006.28 1006.07 1005.89 1005.73 1005.56 1005.40 1005.23 1005.05 1004.86 1004.68 1004.51
1009.78 1010.21 1010.55 1010.82 1011.03 1011.19 1011.31 1011.39 1011.42 1011.39 1011.30 1011.16 1010.96 1010.73 1010.47 1010.22 1009.98 1009.77 1009.60 1009.46 1009.34 1009.23 1009.11 1008.96 1008.78 1008.56 1008.30 1008.01 1007.70 1007.39 1007.10 1006.84 1006.60 1006.40 1006.23 1006.08 1005.93 1005.78 1005.62 1005.45 1005.26 1005.06 1004.85
1009.54 1010.01 1010.40 1010.72 1010.97 1011.16 1011.30 1011.38 1011.39 1011.34 1011.23 1011.06 1010.85 1010.60 1010.34 1010.09 1009.87 1009.70 1009.57 1009.48 1009.42 1009.37 1009.32 1009.23 1009.10 1008.92 1008.69 1008.41 1008.10 1007.78 1007.47 1007.17 1006.90 1006.66 1006.45 1006.27 1006.11 1005.95 1005.78 1005.61 1005.43 1005.23 1005.02
1009.24 1009.75 1010.18 1010.53 1010.82 1011.04 1011.20 1011.29 1011.31 1011.26 1011.14 1010.96 1010.74 1010.49 1010.23 1009.99 1009.79 1009.63 1009.53 1009.48 1009.47 1009.48 1009.48 1009.45 1009.37 1009.24 1009.04 1008.79 1008.49 1008.15 1007.81 1007.47 1007.15 1006.86 1006.60 1006.37 1006.16 1005.98 1005.81 1005.64 1005.47 1005.29 1005.11
Thickness
5810 5810 5809 5807 5803 5799 5795 5792 5789 5787 5785 5782 5780 5778 5776 5776 5775 5774 5771 5770 5769 5768 5767 5768 5765 5764 5764 5762 5762 5761 5760 5759 5760 5759 5758 5762 5764 5763 5761 5760 5759 5757 5755
5808 5808 5808 5806 5802 5798 5794 5792 5788 5786 5784 5782 5780 5778 5776 5775 5774 5773 5770 5768 5767 5766 5768 5764 5764 5763 5761 5760 5759 5757 5757 5759 5759 5755 5752 5750 5753 5757 5761 5758 5756 5755 5754
5808 5807 5805 5804 5802 5798 5794 5792 5788 5786 5783 5781 5780 5777 5773 5772 5771 5769 5768 5767 5766 5765 5764 5763 5762 5761 5761 5759 5757 5756 5753 5753 5756 5755 5749 5745 5743 5749 5754 5753 5753 5752 5751
5811 5808 5806 5803 5801 5799 5796 5791 5788 5784 5782 5780 5777 5773 5770 5768 5767 5767 5767 5766 5765 5763 5762 5761 5760 5759 5759 5757 5756 5756 5754 5750 5750 5751 5749 5747 5746 5741 5743 5748 5750 5749 5747
5813 5809 5808 5805 5803 5800 5797 5792 5786 5783 5780 5778 5775 5771 5769 5768 5768 5767 5765 5763 5764 5762 5760 5759 5758 5757 5757 5755 5753 5752 5751 5750 5748 5747 5746 5744 5743 5742 5738 5737 5741 5743 5744
5813 5811 5809 5806 5803 5801 5796 5792 5785 5781 5779 5776 5773 5769 5766 5764 5763 5762 5761 5761 5762 5760 5759 5757 5755 5755 5754 5752 5751 5749 5749 5747 5745 5745 5744 5741 5739 5738 5737 5735 5735 5736 5739
5812 5809 5805 5802 5800 5797 5794 5790 5784 5779 5777 5774 5771 5769 5765 5763 5760 5759 5759 5759 5759 5758 5755 5755 5752 5752 5750 5749 5748 5746 5745 5744 5741 5740 5740 5740 5738 5737 5735 5732 5733 5732 5734
5812 5808 5805 5801 5799 5795 5792 5788 5783 5778 5776 5773 5770 5768 5765 5763 5762 5759 5758 5757 5757 5756 5753 5751 5749 5748 5747 5747 5745 5744 5742 5740 5738 5737 5735 5735 5735 5735 5732 5730 5727 5725 5728
5809 5806 5804 5801 5798 5794 5790 5787 5782 5777 5774 5772 5769 5765 5763 5760 5759 5757 5755 5755 5753 5753 5750 5747 5746 5744 5743 5742 5740 5739 5736 5735 5734 5733 5732 5731 5731 5731 5730 5728 5725 5721 5719
5805 5802 5800 5798 5796 5793 5790 5786 5782 5777 5773 5771 5768 5765 5761 5758 5756 5754 5751 5750 5748 5746 5744 5743 5741 5739 5738 5737 5735 5734 5731 5729 5728 5727 5725 5725 5727 5726 5726 5724 5723 5721 5717
5802 5799 5796 5794 5793 5791 5788 5783 5780 5776 5772 5768 5765 5762 5760 5757 5754 5751 5749 5746 5744 5742 5740 5738 5736 5734 5732 5731 5729 5728 5725 5723 5722 5721 5720 5719 5718 5719 5720 5719 5718 5716 5713
5800 5797 5794 5790 5787 5784 5782 5778 5775 5772 5769 5765 5762 5759 5756 5754 5751 5748 5745 5742 5739 5738 5736 5734 5731 5729 5727 5725 5723 5721 5719 5717 5716 5715 5714 5713 5713 5711 5711 5711 5711 5710 5707
5794 5792 5789 5785 5782 5779 5776 5773 5770 5768 5766 5762 5759 5755 5751 5748 5746 5743 5740 5737 5734 5732 5730 5728 5725 5723 5721 5719 5718 5715 5713 5711 5710 5709 5707 5706 5705 5703 5704 5703 5703 5703 5703
5787 5786 5782 5779 5776 5773 5770 5767 5765 5763 5760 5756 5753 5749 5746 5742 5740 5737 5734 5731 5728 5726 5723 5721 5719 5717 5715 5714 5711 5709 5707 5705 5704 5703 5701 5700 5698 5696 5695 5695 5694 5694 5693
5781 5779 5776 5773 5770 5767 5764 5762 5760 5758 5754 5750 5746 5743 5741 5738 5735 5731 5728 5725 5722 5721 5717 5715 5713 5711 5710 5707 5703 5703 5702 5699 5698 5697 5695 5694 5691 5688 5687 5688 5687 5686 5685
5776 5774 5771 5768 5765 5762 5759 5757 5754 5752 5749 5744 5741 5739 5736 5732 5729 5726 5723 5720 5716 5714 5712 5709 5706 5704 5703 5696 5693 5693 5695 5693 5691 5690 5689 5688 5686 5682 5679 5678 5676 5674 5675
5771 5768 5766 5763 5760 5758 5755 5751 5749 5747 5743 5739 5737 5734 5730 5727 5723 5721 5717 5714 5711 5708 5705 5703 5700 5698 5693 5688 5685 5684 5686 5686 5684 5683 5681 5682 5681 5677 5675 5672 5669 5668 5665
5765 5763 5761 5759 5757 5755 5751 5748 5745 5742 5738 5734 5731 5729 5725 5721 5718 5715 5712 5709 5706 5703 5699 5697 5695 5692 5688 5682 5679 5677 5679 5679 5678 5676 5674 5672 5671 5669 5664 5665 5664 5662 5661
5760 5758 5757 5756 5752 5749 5746 5742 5740 5737 5733 5729 5726 5724 5720 5716 5713 5710 5707 5704 5700 5697 5695 5693 5690 5687 5683 5676 5673 5669 5674 5673 5671 5670 5668 5665 5663 5657 5654 5655 5654 5653 5653
5754 5752 5751 5748 5745 5743 5741 5736 5734 5731 5727 5725 5722 5720 5716 5712 5709 5706 5702 5699 5695 5692 5690 5687 5684 5682 5679 5672 5667 5664 5670 5668 5667 5665 5663 5656 5654 5649 5646 5647 5646 5644 5645
5746 5744 5742 5739 5737 5735 5732 5729 5727 5725 5723 5721 5717 5714 5711 5708 5705 5701 5697 5693 5690 5687 5684 5681 5679 5677 5673 5667 5662 5658 5661 5662 5661 5661 5659 5655 5645 5642 5639 5637 5638 5636 5635
5736 5735 5732 5730 5729 5727 5724 5721 5719 5719 5717 5714 5711 5707 5705 5703 5701 5695 5691 5688 5684 5681 5678 5676 5673 5672 5669 5663 5658 5653 5651 5650 5652 5652 5652 5647 5638 5634 5632 5631 5629 5627 5626
5727 5726 5724 5721 5720 5718 5716 5712 5711 5711 5709 5706 5702 5700 5698 5695 5692 5688 5685 5682 5679 5677 5675 5674 5671 5669 5667 5661 5653 5648 5645 5643 5643 5645 5640 5635 5631 5628 5628 5625 5622 5621 5623
5719 5717 5715 5712 5710 5709 5706 5704 5703 5701 5699 5696 5694 5692 5689 5687 5685 5681 5679 5677 5674 5671 5669 5668 5665 5664 5661 5657 5651 5647 5642 5637 5637 5636 5633 5628 5625 5623 5622 5621 5620 5619 5620
5710 5708 5705 5703 5701 5699 5697 5697 5695 5692 5690 5688 5686 5685 5683 5681 5676 5674 5671 5669 5666 5663 5659 5660 5658 5655 5652 5645 5637 5635 5636 5634 5631 5627 5628 5627 5625 5622 5621 5620 5618 5616 5614
5701 5698 5696 5694 5692 5690 5689 5688 5686 5684 5681 5680 5679 5678 5677 5674 5671 5667 5664 5659 5657 5652 5649 5646 5644 5644 5638 5632 5628 5625 5622 5620 5617 5617 5621 5621 5619 5617 5615 5613 5611 5608 5607